DECAYED

ELECTRON R/B, 64693 (Decayed)

Orbit data source: Space-Track

ELECTRON R/B, 64693 was space debris in LEO originally from a launch on Sat, 28 Jun 2025 UTC launched from the Rocket Lab Launch Complex (RLLC). Debris objects in space refer to the collection of defunct objects orbiting the Earth. Examples of debris include non-operational satellites, rocket bodies, and fragments generated from explosions, collisions, or faulty payload assembly.

Not visible in the next 10 days
Identifier
64693, 2025-140C
Orbit
Decayed
Country
Flag of USUS
Related business
Manufacturer
Rocket Lab
Mission
Decayed spacecraft
Bus & Motor
ELECTRON ST2, Unknown motor
Mass
250 kg wet, ~250 kg dry
Launch date (UTC)
2025-06-28 (1 year ago)
Launch vehicle
Unknown
Launch site
Rocket Lab Launch Complex (RLLC)
Object type
Payload
Rocket body
Debris
Shape & HBR
Cyl, 1.1 m
Radar Cross Section
2.827 m², Large (>1 m²)

Expand to show TLE details & history
Last TLE update: 11 months ago

TLE from 11 months ago
0 ELECTRON R/B
1 64693U 25140C   25194.36318463  .26975377  11714-5  35632-3 0  9992
2 64693  95.9461  40.8237 0033637 175.9440 313.4032 16.46008519  2378
Epoch: 2025-07-13T08:42Z
TLE epoch observation values (Epoch: 2025-07-13T08:42:59.152Z)
Latitude
50.66513°
Longitude
165.84895°
Altitude
143.089 km
Speed
7.834 km/s
True Right ascension
15h 12m 19s
True Declination
50° 28' 50"
Sunlit
Object was in daylight at epoch
Visualization orbit readout
Latitude
Unknown
Longitude
Unknown
Altitude
Unknown
Speed
Unknown
Apparent Right ascension
Unknown
Apparent Declination
Unknown
Sunlit
N/A
Visualization observer readout
Local Sidereal Time
10:17:55
Azimuth
Unknown
Elevation
Unknown
Doppler factor
Unknown
Orbital elements
Apogee altitude
168.555 km
Perigee altitude
124.661 km
Semi-major axis
6,524.745 km
Eccentricity
0.00336
Inclination
95.9461°
RAAN
40.8237°
Arg. of periapsis
175.944°
True anomaly
313.12235°
Mean anomaly
313.4032°
Eccentric anomaly
313.26285°
Mean motion
4.11811 °/min
Orbital period
87.42 mins
BSTAR
0.00035632
Loading maneuver chart data...
Computing Atmospheric mass density...
Loading historical data...
Loading historical data...
Loading historical data...
Loading historical data...
Loading historical data...
Loading historical data...
Loading historical data...
Other satellites on launch #140 in the year 2025 (2025-06-28 UTC)

Documentation

Showing up to 5 results
|